Hourly Weather Roundup
Issued by NWS Central Illinois

Home | Current Version | Previous Version | Text Only | Print | Product List | Glossary On
Versions: 1 2 3 4 5 6 7 8 9 10 11 12 13 14 15 16 17 18 19 20 21 22 23 24 25 26 27 28 29 30 31 32 33 34 35 36 37 38 39 40 41 42 43 44 45 46 47 48 49 50
000
NZUS43 KILX 291910
HWRILX

Area Weather Roundup
National Weather Service Lincoln IL
200 PM CDT MON MAY 29 2017

NOTE:  "FAIR" indicates few or no clouds below 12,000 feet, with
       no sigificant weather and/or obstructions to visibility.


CITY           SKY/WX    TMP DP  RH WIND       PRES   REMARKS
Bloomington    PTSUNNY   79  48  33 W22G28    29.90S
Champaign      MOSUNNY   83  44  25 W21G29    29.89F HX  81
Danville       PTSUNNY   80  49  33 W15G22    29.85F HX  80
Decatur        SUNNY     81  48  31 W13G21    29.90F HX  80
Effingham      MOSUNNY   83  53  36 S7        29.93F HX  81
Flora          SUNNY     84  44  24 W5        29.94S HX  82
Galesburg      SUNNY     75  44  32 W13G22    29.90F
Jacksonville   PTSUNNY   79  47  32 W22G28    29.91F
Lacon          SUNNY     77  45  31 W15       29.88F
Lawrenceville  MOSUNNY   85  48  27 W18G26    29.92F HX  82
Litchfield     MOSUNNY   81  47  31 SW13      29.92F HX  80
$$


CITY           SKY/WX    TMP DP  RH WIND       PRES   REMARKS
Lincoln        SUNNY     80  50  34 W9G18     29.90S HX  80
Macomb         SUNNY     76  43  30 W13G23    29.94F
Mattoon        SUNNY     82  48  30 W12G21    29.90F HX  81
Mt Carmel AP   MOSUNNY   83  47  28 SW14      29.92F HX  81
Olney-Noble AP SUNNY     83  48  29 SW7       29.93F HX  81
Paris AP       SUNNY     82  52  35 W13G20    29.90F HX  81
Peoria         MOSUNNY   76  47  35 W12       29.90F
Pontiac        PTSUNNY   77  47  35 W15G23    29.89F
Rantoul        MOSUNNY   83  45  25 W20G28    29.88F HX  81
Robinson       SUNNY     84  49  29 W15       29.92F HX  82
Springfield    SUNNY     83  45  26 W20G30    29.90F HX  81
Taylorville    MOSUNNY   83  45  25 W16G24    29.90F HX  81
$$

...REGIONAL REPORTS...


CITY           SKY/WX    TMP DP  RH WIND       PRES   REMARKS
Chicago O`Hare MOSUNNY   76  42  29 W21G38    29.83R
Kankakee       SUNNY     79  45  29 W20G29    29.87S
Moline         SUNNY     75  44  33 W21G35    29.89S
Mount Sterling CLOUDY    74  49  41 W12       29.93S
Mount Vernon     N/A     83  50  31 SW15      29.95S HX  81
Pittsfield     MOSUNNY   78  50  36 W13       29.93F
Quincy         MOSUNNY   76  47  35 NW10      29.93F
Rockford       MOSUNNY   71  48  43 W16G26    29.85S
$$


CITY           SKY/WX    TMP DP  RH WIND       PRES   REMARKS
Burlington     SUNNY     77  43  29 W17G24    29.91F
Cedar Rapids   MOSUNNY   73  47  39 W22G36    29.89S
Des Moines     MOSUNNY   75  41  29 W23G35    29.94F
Kirksville     SUNNY     79  46  31 NW10      29.96F
Ottumwa        SUNNY     73  41  31 W21G28    29.93F
St Louis       MOSUNNY   87  47  24 W14G20    29.92F HX  84
$$


CITY           SKY/WX    TMP DP  RH WIND       PRES   REMARKS
Terre Haute    SUNNY     81  50  33 SW17      29.91F HX  80
Evansville     PTSUNNY   84  54  35 SW13      29.95F HX  83
Indianapolis   MOSUNNY   80  52  37 W21G28    29.90F HX  80
Lafayette      MOSUNNY   79  48  33 SW17G26   29.86F
Madison        PTSUNNY   66  47  50 W10G22    29.81R
Milwaukee      MOSUNNY   72  46  39 W18G24    29.79S
$$






USA.gov is the U.S. government's official web portal to all federal, state and local government web resources and services.